Showing default

MIDAS 4, 192

Orbit data source: Space-Track

MIDAS 4, 192 is a payload satellite owned by USAF SSD (US) in LEO that was launched on Sat, 21 Oct 1961 UTC via an ATLAS AGENA B launch vehicle from the Air Force Western Test Range (AFWTR). Payload-class satellites include a variety of spacecraft equipped with specific instruments for various scientific and technological missions. These include communications satellites like Starlink; space stations such as the ISS; scientific satellites like the Hubble; Earth observation satellites from companies like Planet Labs, Umbra, and HawkEye 360; GPS; miniature CubeSats for education and research; and military/defense satellites.

Loading next visibility...
Identifier
192, 1961-028A
Orbit
LEO
Country
Flag of USUS
Related business
Manufacturer
LMSC
Mission
Defense Early Warn
Bus & Motor
MIDAS, Unknown motor
Mass
~1,540 kg wet, 840 kg dry
Launch date (UTC)
1961-10-21 (64 years ago)
Launch vehicle
ATLAS AGENA B
Launch site
Air Force Western Test Range (AFWTR)
Object type
Payload
Rocket body
Debris
Shape & HBR
Cyl, 4.5 m
Radar Cross Section
11.475 m², Large (>1 m²)

Expand to show TLE details & history
Last TLE update: 16 hours ago

TLE from 16 hours ago
0 MIDAS 4
1 00192U 61028A   25242.64683221 -.00000016  00000-0 -55442-2 0  9997
2 00192  95.8402 162.6079 0135284 252.4163 106.1872  8.67771233 22956
Epoch: 2025-08-30T15:31Z
TLE epoch observation values (Epoch: 2025-08-30T15:31:26.302Z)
Latitude
0.00002°
Longitude
-49.32983°
Altitude
3,666.458 km
Speed
6.288 km/s
True Right ascension
10h 50m 25s
True Declination
0° 00' 00"
Sunlit
Object was in daylight at epoch
Visualization orbit readout
Latitude
Unknown
Longitude
Unknown
Altitude
Unknown
Speed
Unknown
Apparent Right ascension
Unknown
Apparent Declination
Unknown
Sunlit
N/A
Visualization observer readout
Local Sidereal Time
23:27:06
Azimuth
Unknown
Elevation
Unknown
Doppler factor
Unknown
Orbital elements
Apogee altitude
3,758.065 km
Perigee altitude
3,487.472 km
Semi-major axis
10,000.905 km
Eccentricity
0.01353
Inclination
95.8402°
RAAN
162.6079°
Arg. of periapsis
252.4163°
True anomaly
107.66883°
Mean anomaly
106.1872°
Eccentric anomaly
106.92873°
Mean motion
2.17012 °/min
Orbital period
165.89 mins
BSTAR
-0.0055442
Loading maneuver chart data...
Computing Atmospheric mass density...
Loading historical data...
Loading historical data...
Loading historical data...
Loading historical data...
Loading historical data...
Loading historical data...
Loading historical data...

Documentation

Showing up to 5 results
|